When you browse on this site, cookies collect data to enhance your experience and personalize the content and advertising you see.
Visit our Privacy Policy to learn more. By continuing to use the site, you agree to this use of cookies and data.
  • Em Portugal
  • Lista de países
  • Para 7 dias
  • Temperatura da água
  • Mapa do tempo
  • Widgets de tempo
  • user-avatar
    Iniciar Sessão

    Previsão horária em Asadabad

    Hoje, 6 Junho, Sábado

    Tempo Temperatura Precipitação Vento Pressão Humidade
    00:00 +24°C° 0 mm 2 m/s 655 mmHg 58%
    01:00 +23°C° 0 mm 2 m/s 655 mmHg 56%
    02:00 +23°C° 0 mm 2 m/s 654 mmHg 55%
    03:00 +23°C° 0 mm 2 m/s 654 mmHg 54%
    04:00 +21°C° 0 mm 2 m/s 654 mmHg 53%
    05:00 +21°C° 0 mm 2 m/s 655 mmHg 52%
    06:00 +23°C° 0 mm 1 m/s 655 mmHg 47%
    07:00 +25°C° 0 mm 1 m/s 656 mmHg 43%
    08:00 +27°C° 0 mm 1 m/s 656 mmHg 39%
    09:00 +27°C° 0 mm 1 m/s 656 mmHg 39%
    10:00 +28°C° 0 mm 2 m/s 656 mmHg 40%
    11:00 +29°C° 0 mm 2 m/s 656 mmHg 40%
    12:00 +30°C° 0 mm 3 m/s 656 mmHg 39%
    13:00 +30°C° 0 mm 3 m/s 656 mmHg 39%
    14:00 +31°C° 0 mm 3 m/s 656 mmHg 38%
    15:00 +31°C° 0 mm 3 m/s 655 mmHg 40%
    16:00 +31°C° 0 mm 3 m/s 655 mmHg 41%
    17:00 +31°C° 0 mm 3 m/s 655 mmHg 42%
    18:00 +29°C° 0.2 mm 2 m/s 655 mmHg 49%
    19:00 +28°C° 0.2 mm 2 m/s 655 mmHg 55%
    20:00 +26°C° 0.2 mm 1 m/s 655 mmHg 61%
    21:00 +26°C° 0.2 mm 1 m/s 655 mmHg 61%
    22:00 +25°C° 0.2 mm 1 m/s 655 mmHg 61%
    23:00 +25°C° 0.2 mm 1 m/s 655 mmHg 61%

    Amanhã, 7 Junho, Domingo

    Tempo Temperatura Precipitação Vento Pressão Humidade
    00:00 +24°C° 0 mm 1 m/s 655 mmHg 60%
    01:00 +24°C° 0 mm 1 m/s 655 mmHg 59%
    02:00 +23°C° 0 mm 1 m/s 655 mmHg 58%
    03:00 +23°C° 0 mm 1 m/s 655 mmHg 56%
    04:00 +21°C° 0 mm 2 m/s 655 mmHg 55%
    05:00 +21°C° 0 mm 2 m/s 655 mmHg 53%
    06:00 +24°C° 0 mm 1 m/s 655 mmHg 48%
    07:00 +25°C° 0 mm 1 m/s 656 mmHg 44%
    08:00 +25°C° 0 mm 0 m/s 657 mmHg 39%
    09:00 +28°C° 0 mm 1 m/s 657 mmHg 38%
    10:00 +29°C° 0 mm 1 m/s 657 mmHg 38%
    11:00 +30°C° 0 mm 2 m/s 657 mmHg 38%
    12:00 +31°C° 0 mm 2 m/s 657 mmHg 36%
    13:00 +31°C° 0 mm 3 m/s 656 mmHg 34%
    14:00 +33°C° 0 mm 3 m/s 656 mmHg 32%
    15:00 +33°C° 0 mm 3 m/s 656 mmHg 31%
    16:00 +32°C° 0 mm 2 m/s 655 mmHg 31%
    17:00 +32°C° 0 mm 2 m/s 655 mmHg 30%
    18:00 +31°C° 0 mm 2 m/s 655 mmHg 36%
    19:00 +29°C° 0 mm 1 m/s 655 mmHg 42%
    20:00 +27°C° 0 mm 1 m/s 655 mmHg 48%
    21:00 +27°C° 0 mm 1 m/s 655 mmHg 51%
    22:00 +26°C° 0 mm 1 m/s 655 mmHg 54%
    23:00 +25°C° 0 mm 1 m/s 655 mmHg 57%

    Depois de amanhã, 8 Junho, Segunda-feira

    Tempo Temperatura Precipitação Vento Pressão Humidade
    00:00 +25°C° 0 mm 1 m/s 655 mmHg 56%
    01:00 +25°C° 0 mm 1 m/s 655 mmHg 55%
    02:00 +24°C° 0 mm 1 m/s 655 mmHg 54%
    03:00 +24°C° 0 mm 1 m/s 654 mmHg 52%
    04:00 +24°C° 0 mm 1 m/s 654 mmHg 50%
    05:00 +23°C° 0 mm 1 m/s 654 mmHg 49%
    06:00 +25°C° 0 mm 1 m/s 655 mmHg 44%
    07:00 +27°C° 0 mm 1 m/s 655 mmHg 40%
    08:00 +26°C° 0 mm 0 m/s 656 mmHg 36%
    09:00 +29°C° 0 mm 1 m/s 656 mmHg 36%
    10:00 +30°C° 0 mm 2 m/s 656 mmHg 35%
    11:00 +31°C° 0 mm 2 m/s 656 mmHg 35%
    12:00 +32°C° 0 mm 2 m/s 656 mmHg 33%
    13:00 +34°C° 0 mm 2 m/s 656 mmHg 31%
    14:00 +34°C° 0 mm 2 m/s 656 mmHg 29%
    15:00 +34°C° 0 mm 2 m/s 656 mmHg 28%
    16:00 +35°C° 0 mm 2 m/s 656 mmHg 26%
    17:00 +35°C° 0 mm 2 m/s 655 mmHg 25%
    18:00 +32°C° 0 mm 2 m/s 655 mmHg 31%
    19:00 +30°C° 0 mm 1 m/s 655 mmHg 37%
    20:00 +28°C° 0 mm 1 m/s 655 mmHg 43%
    21:00 +28°C° 0 mm 1 m/s 655 mmHg 44%
    22:00 +27°C° 0 mm 1 m/s 655 mmHg 46%
    23:00 +27°C° 0 mm 1 m/s 655 mmHg 47%

    9 Junho, Terça-feira

    Tempo Temperatura Precipitação Vento Pressão Humidade
    00:00 +26°C° 0 mm 1 m/s 655 mmHg 47%
    01:00 +26°C° 0 mm 1 m/s 655 mmHg 46%
    02:00 +25°C° 0 mm 2 m/s 655 mmHg 46%
    03:00 +25°C° 0.1 mm 1 m/s 654 mmHg 47%
    04:00 +25°C° 0.1 mm 1 m/s 654 mmHg 48%
    05:00 +25°C° 0.1 mm 1 m/s 654 mmHg 48%
    06:00 +26°C° 0.2 mm 1 m/s 655 mmHg 45%
    07:00 +28°C° 0.2 mm 1 m/s 656 mmHg 42%
    08:00 +29°C° 0.2 mm 1 m/s 656 mmHg 39%
    09:00 +30°C° 0 mm 1 m/s 657 mmHg 38%
    10:00 +31°C° 0 mm 2 m/s 657 mmHg 37%
    11:00 +32°C° 0 mm 2 m/s 657 mmHg 36%
    12:00 +34°C° 0.1 mm 2 m/s 657 mmHg 33%
    13:00 +34°C° 0.1 mm 2 m/s 657 mmHg 31%
    14:00 +35°C° 0.1 mm 2 m/s 657 mmHg 28%
    15:00 +34°C° 0.1 mm 3 m/s 656 mmHg 30%
    16:00 +33°C° 0.1 mm 3 m/s 656 mmHg 32%
    17:00 +33°C° 0.1 mm 4 m/s 655 mmHg 34%
    18:00 +30°C° 0 mm 3 m/s 655 mmHg 40%
    19:00 +28°C° 0 mm 3 m/s 655 mmHg 46%
    20:00 +26°C° 0 mm 3 m/s 655 mmHg 52%
    21:00 +26°C° 0 mm 2 m/s 655 mmHg 51%
    22:00 +25°C° 0 mm 2 m/s 655 mmHg 50%
    23:00 +25°C° 0 mm 2 m/s 656 mmHg 50%

    10 Junho, Quarta-feira

    Tempo Temperatura Precipitação Vento Pressão Humidade
    00:00 +25°C° 0.1 mm 2 m/s 655 mmHg 50%
    01:00 +25°C° 0.1 mm 2 m/s 655 mmHg 50%
    02:00 +24°C° 0.1 mm 1 m/s 655 mmHg 50%
    03:00 +24°C° 0 mm 1 m/s 655 mmHg 50%
    04:00 +23°C° 0 mm 1 m/s 655 mmHg 50%
    05:00 +23°C° 0 mm 1 m/s 655 mmHg 51%
    06:00 +25°C° 0 mm 1 m/s 656 mmHg 45%
    07:00 +27°C° 0 mm 1 m/s 656 mmHg 39%
    08:00 +28°C° 0 mm 1 m/s 657 mmHg 33%
    09:00 +29°C° 0 mm 1 m/s 657 mmHg 31%
    10:00 +31°C° 0 mm 1 m/s 657 mmHg 30%
    11:00 +32°C° 0 mm 1 m/s 657 mmHg 29%
    12:00 +32°C° 0 mm 2 m/s 657 mmHg 27%
    13:00 +34°C° 0 mm 2 m/s 657 mmHg 26%
    14:00 +35°C° 0 mm 2 m/s 657 mmHg 24%
    15:00 +35°C° 0 mm 2 m/s 657 mmHg 23%
    16:00 +35°C° 0 mm 2 m/s 656 mmHg 22%
    17:00 +35°C° 0 mm 2 m/s 656 mmHg 21%
    18:00 +32°C° 0 mm 2 m/s 656 mmHg 26%
    19:00 +30°C° 0 mm 1 m/s 656 mmHg 32%
    20:00 +28°C° 0 mm 1 m/s 655 mmHg 37%
    21:00 +28°C° 0 mm 1 m/s 655 mmHg 38%
    22:00 +27°C° 0 mm 2 m/s 655 mmHg 39%
    23:00 +26°C° 0 mm 2 m/s 655 mmHg 40%

    11 Junho, Quinta-feira

    Tempo Temperatura Precipitação Vento Pressão Humidade
    00:00 +26°C° 0 mm 2 m/s 655 mmHg 40%
    01:00 +26°C° 0 mm 2 m/s 655 mmHg 40%
    02:00 +25°C° 0 mm 2 m/s 654 mmHg 40%
    03:00 +25°C° 0 mm 2 m/s 654 mmHg 39%
    04:00 +24°C° 0 mm 2 m/s 654 mmHg 39%
    05:00 +24°C° 0 mm 2 m/s 654 mmHg 38%
    06:00 +26°C° 0 mm 2 m/s 654 mmHg 35%
    07:00 +28°C° 0 mm 1 m/s 655 mmHg 31%
    08:00 +30°C° 0 mm 1 m/s 656 mmHg 28%
    09:00 +31°C° 0 mm 1 m/s 656 mmHg 26%
    10:00 +32°C° 0 mm 1 m/s 656 mmHg 23%
    11:00 +34°C° 0 mm 2 m/s 656 mmHg 21%
    12:00 +35°C° 0 mm 2 m/s 656 mmHg 20%
    13:00 +36°C° 0 mm 2 m/s 656 mmHg 18%
    14:00 +36°C° 0 mm 3 m/s 656 mmHg 17%
    15:00 +36°C° 0 mm 3 m/s 655 mmHg 16%
    16:00 +36°C° 0 mm 3 m/s 655 mmHg 16%
    17:00 +36°C° 0 mm 3 m/s 655 mmHg 16%
    18:00 +34°C° 0 mm 2 m/s 655 mmHg 25%
    19:00 +31°C° 0 mm 1 m/s 654 mmHg 35%
    20:00 +26°C° 0 mm 0 m/s 654 mmHg 44%
    21:00 +28°C° 0 mm 1 m/s 654 mmHg 41%
    22:00 +28°C° 0 mm 1 m/s 654 mmHg 38%
    23:00 +28°C° 0 mm 2 m/s 654 mmHg 36%
    Mostrar mais